TIANHUI 2-01B (44209 NORAD) Tracking and Keplerian Element Data

This shows tracking and keplerian element data for the satellite.

Feedback or suggestion? Click here.




ElementValue
Catalog44209
NameTIANHUI 2-01B
Epoch Orbit441
Epoch Day149.10091065
Epoch Year2019
RAAN156.1759
Inclination97.4502
Eccentricity0.0001778
Argument of Perigee82.2416
Mean Anonmoly4.361
Mean Motion15.16766666
Decay Rate-6.5E-07
L11 44209U 19024C 19149.10091065 -.00000065 00000-0 22857-7 0 9994
L22 44209 97.4502 156.1759 0001778 82.2416 4.3610 15.16766666 4411

Live tracking and technical data element details for TIANHUI 2-01B (NORAD 44209). TIANHUI 2-01B can be tracked NOW for your location showing map with azimuth and elevation plus other details from your city location.

Track the satellite on the map from your city or location and see movement details for azimuth, elevation, latitude, longitude, range, height, and movement on the map or in text.







IsCatalogInMostPopularTable: catalog: 44209, numindb: 20
Update: records affected: 1



GetName: 44209 TIANHUI 2-01B

Hit Count: updated at: Tue, 16 Jul 2019 14:52:52 GMT